Theta_e
324 331 343 344 344 345 347 348 348 348 348 347 347 346 347 347 346 346 347 348 348 348 348 348 349 350 349 348 348 348 349 348 349 348 347 347 344 348 353 353 351 350 355
326 331 340 340 341 343 345 346 346 346 346 346 345 345 344 344 344 344 342 344 345 347 348 348 348 347 347 347 347 347 348 347 348 347 346 346 346 344 353 352 352 351 353
326 329 332 338 338 339 340 341 343 343 344 345 344 342 341 341 340 341 339 338 339 341 342 344 343 341 341 343 345 346 346 346 346 345 342 339 336 353 353 352 353 354 353
323 324 327 335 336 337 336 337 338 338 338 338 339 338 335 334 335 335 335 334 335 336 338 339 338 336 336 338 340 342 343 343 343 343 335 336 339 349 349 351 352 352 351
319 321 326 332 333 334 333 333 335 334 334 335 333 332 332 330 329 328 327 326 326 328 333 334 332 331 331 332 334 336 336 335 336 339 334 332 335 345 348 347 348 349 349
316 319 327 329 329 329 328 329 330 329 332 327 325 325 325 323 323 321 321 320 321 321 324 324 322 322 321 323 325 328 328 328 329 327 332 334 332 341 344 347 348 347 346
312 315 320 327 326 326 325 325 324 324 325 322 321 320 319 318 318 318 318 318 318 318 319 319 319 318 318 318 318 318 319 318 313 316 322 328 330 343 343 346 346 347 348
310 312 315 322 324 323 322 322 321 320 319 318 318 316 316 315 315 315 316 316 316 316 316 317 316 316 316 316 315 314 313 315 310 307 310 321 333 341 342 346 344 344 344
309 308 308 310 315 319 320 319 318 317 316 315 314 313 312 311 311 310 312 313 314 314 314 315 314 314 314 315 314 314 314 317 303 307 313 320 326 333 340 344 343 342 342
303 305 304 304 305 304 307 316 316 314 312 310 310 309 309 309 309 307 307 310 311 312 312 312 312 312 310 310 311 311 311 308 300 301 304 306 320 324 330 335 340 342 341
299 300 301 301 301 301 302 308 312 311 309 308 307 308 306 298 299 301 306 308 308 308 308 309 308 307 306 305 307 308 307 301 300 301 301 312 316 319 321 323 328 332 337
295 296 299 298 299 299 302 301 299 301 299 300 299 298 299 297 299 301 304 304 304 303 304 305 305 303 300 297 297 301 298 299 299 300 301 310 313 315 317 319 319 322 326
295 295 297 297 297 297 297 297 296 296 296 297 296 297 297 296 295 295 294 294 294 297 293 294 294 294 294 294 295 295 296 296 296 298 301 307 310 313 315 317 318 319 320
294 295 295 296 296 295 296 297 296 296 295 295 295 296 295 293 292 292 292 291 291 291 290 290 291 292 292 293 294 294 294 294 294 296 298 304 307 310 314 316 317 318 319
295 295 295 295 295 295 296 296 295 295 295 294 293 294 294 292 290 291 290 290 289 289 289 289 290 290 291 292 293 293 293 293 293 294 295 301 304 307 310 313 315 317 318
297 296 295 295 295 296 294 294 294 294 294 294 291 291 292 291 289 290 289 289 288 288 288 288 288 288 289 290 291 292 292 292 293 293 294 294 302 304 307 310 313 315 316
298 297 294 295 295 296 294 294 294 293 293 292 291 291 291 290 289 288 288 288 287 288 288 288 288 288 288 289 289 290 291 292 292 292 293 294 295 301 304 307 309 311 313
297 295 295 296 295 294 293 293 293 292 291 291 290 290 290 290 289 287 287 287 287 287 286 286 286 286 286 286 287 288 289 290 290 290 291 292 293 295 300 305 308 309 311
298 295 294 294 293 294 292 292 291 290 290 290 289 289 289 289 288 287 286 286 287 286 286 286 286 285 284 285 287 288 288 288 288 290 290 292 293 295 296 301 306 307 309
298 295 294 294 293 293 292 290 289 289 288 288 287 288 288 288 288 286 285 286 286 285 285 285 284 285 284 285 287 287 287 287 287 286 288 291 292 294 295 296 297 299 304
294 293 292 292 292 293 291 289 288 288 286 286 286 288 287 287 287 286 285 285 285 284 284 285 284 284 284 284 283 283 284 286 286 286 286 286 288 291 293 294 293 293 294
293 293 292 292 292 292 292 291 288 288 285 286 287 287 287 287 286 286 285 284 284 283 283 283 283 282 283 283 281 280 279 282 285 286 286 287 286 288 289 290 290 292 292
292 291 292 292 292 292 291 289 286 286 285 284 285 285 286 286 286 285 284 283 283 283 282 282 282 282 281 281 282 281 278 277 281 283 285 285 285 285 286 288 290 290 290
292 292 292 291 291 291 289 289 286 287 286 286 287 286 285 286 285 284 284 283 282 282 282 281 283 281 281 279 281 284 282 281 278 277 282 283 285 285 286 285 287 289 288
292 291 291 290 290 290 290 289 287 286 286 283 283 284 284 283 284 283 283 282 281 281 281 281 281 280 280 280 280 280 280 279 280 278 276 278 282 283 284 285 286 286 287
290 290 290 289 290 290 289 289 287 286 283 282 283 284 283 283 282 282 282 281 280 280 280 280 280 280 279 279 279 280 279 278 278 277 276 277 277 280 282 283 284 284 285
Wind_Speed
2 3 7 11 10 12 13 12 12 12 13 12 12 11 13 13 14 13 13 12 10 9 9 9 10 11 10 10 10 10 10 9 8 8 9 10 9 7 4 1 3 3 6
8 5 7 10 10 10 10 15 15 13 13 13 12 11 11 12 11 12 11 12 12 11 12 13 13 13 13 12 10 10 10 10 9 9 9 8 9 9 5 3 3 4 6
9 6 6 10 10 9 9 9 9 10 10 12 13 12 13 13 11 12 12 11 10 10 12 14 14 13 13 13 13 12 11 11 11 10 12 5 5 10 6 5 5 4 6
10 7 5 10 11 11 10 9 8 9 7 7 8 11 10 8 9 10 11 12 12 11 10 11 11 11 11 10 11 12 12 13 12 11 6 6 7 8 7 9 9 9 9
9 7 7 11 14 13 13 12 12 12 9 10 10 11 11 11 11 12 12 11 11 11 11 10 10 11 11 12 11 12 12 13 13 9 6 5 4 6 9 7 7 8 10
9 7 10 13 14 14 13 13 13 13 13 12 12 12 12 11 11 11 11 11 12 12 11 12 11 11 12 11 11 11 12 14 13 7 7 7 6 9 4 5 6 7 8
8 7 7 14 15 14 13 13 13 13 13 13 12 12 11 11 11 11 12 12 13 13 12 12 12 12 12 12 12 12 13 14 9 7 7 7 6 11 6 3 4 5 7
10 7 6 10 12 14 14 14 14 13 13 12 12 12 12 12 11 11 11 12 12 11 11 12 13 14 14 14 13 14 14 14 8 6 7 6 10 15 12 2 2 4 6
9 8 6 6 8 11 13 14 14 14 13 13 13 13 12 11 11 12 11 12 13 12 13 14 14 15 16 16 17 18 18 15 7 5 7 5 17 16 16 10 5 6 7
8 8 8 7 7 6 6 12 14 14 13 13 12 10 9 11 11 11 10 12 13 12 15 15 16 17 16 17 17 18 17 14 7 6 6 6 17 16 16 16 15 12 10
7 9 9 8 7 7 6 7 11 14 13 12 10 8 9 5 6 6 9 10 12 12 13 14 15 16 16 15 16 16 13 4 6 5 4 16 18 17 16 15 16 16 16
10 9 11 9 9 9 7 7 7 6 5 5 5 6 5 5 5 6 7 11 11 11 13 14 14 13 10 5 4 9 4 6 4 4 4 17 17 17 16 16 15 16 17
10 7 11 10 9 10 8 5 3 3 4 4 6 5 5 4 4 4 3 3 4 7 4 5 5 4 5 4 4 4 5 5 3 4 8 17 17 17 17 16 15 15 15
13 14 11 10 10 8 6 7 6 5 4 4 5 6 5 3 4 4 3 3 3 3 4 4 3 4 5 6 6 6 5 4 3 3 5 13 18 19 18 18 17 16 15
14 14 14 12 11 9 8 6 5 5 5 5 5 5 5 5 5 4 3 3 3 3 4 5 5 5 6 7 7 7 9 9 7 4 3 11 15 19 18 18 18 18 16
15 15 14 14 12 10 7 7 6 5 6 5 5 5 6 5 5 4 4 4 3 3 3 4 4 4 4 5 7 8 8 8 8 9 6 6 16 18 18 17 17 16 17
13 14 17 15 12 12 10 7 6 5 6 5 5 6 7 6 6 6 4 4 2 3 4 4 4 4 4 5 5 6 7 8 7 8 7 6 7 13 15 15 17 17 16
13 17 17 15 15 12 9 6 6 5 5 5 5 5 7 6 6 5 4 4 3 3 3 3 3 4 4 4 5 6 6 7 8 6 6 6 5 6 9 16 16 17 16
18 18 19 17 16 13 8 6 6 7 5 5 5 5 7 7 7 5 4 4 4 3 2 2 2 3 3 4 6 6 7 7 6 4 6 7 6 5 3 9 13 13 15
18 18 18 15 15 15 9 6 4 4 4 5 5 5 7 5 6 6 4 5 4 3 2 2 3 1 1 4 7 8 7 8 4 4 4 4 5 6 5 5 4 5 13
13 17 19 18 16 13 9 8 6 8 5 4 5 8 7 6 6 6 4 5 5 4 4 3 1 2 2 4 4 4 4 6 4 2 3 5 4 4 6 5 4 4 5
19 19 18 18 17 14 11 9 5 6 2 3 4 6 7 7 7 6 6 5 5 4 5 4 3 2 2 4 3 3 6 6 5 9 6 4 6 4 5 6 7 6 5
18 20 20 20 20 16 14 8 4 5 3 3 5 6 6 8 8 7 7 5 5 4 5 4 4 4 1 3 5 1 3 3 8 4 8 6 5 6 5 5 6 7 8
17 17 19 18 19 14 15 14 11 12 11 8 9 7 6 8 7 7 7 6 6 4 5 4 4 3 3 1 1 0 2 3 3 6 5 6 11 5 5 6 9 5 7
15 17 17 17 17 15 18 17 12 12 7 3 4 9 7 6 8 8 8 7 6 4 5 6 4 3 3 3 3 1 2 3 5 6 8 3 7 8 8 7 7 7 8
10 13 15 18 18 18 18 17 19 16 11 8 8 9 9 8 7 7 7 6 6 5 6 5 4 4 3 2 2 3 3 3 3 3 6 10 12 8 6 10 9 7 7
Wind_Direction
127 125 111 104 102 101 92 91 88 85 88 83 76 72 69 68 64 56 50 51 52 50 48 47 44 45 46 39 34 33 29 24 18 9 352 337 321 304 283 14 9 358 13
133 108 103 111 107 112 104 99 97 90 92 90 81 76 76 65 65 67 62 48 37 44 46 49 45 39 32 32 25 22 20 16 12 356 335 328 315 295 251 93 25 5 2
119 114 109 118 116 113 88 77 97 105 88 91 88 70 58 58 53 56 52 52 46 36 30 36 39 30 25 25 23 20 17 11 4 350 332 332 323 52 63 78 55 17 358
126 122 113 118 122 121 112 93 91 90 109 94 77 75 65 68 67 62 60 56 50 47 48 43 35 31 24 16 19 19 16 7 356 341 334 335 351 8 40 35 25 13 11
125 126 132 132 127 122 116 117 111 114 116 105 95 89 85 79 72 63 57 52 50 45 44 44 34 28 25 20 12 7 3 355 345 337 331 331 341 357 9 26 26 16 358
128 131 138 137 131 129 128 122 118 114 109 104 97 92 86 80 75 65 56 48 45 41 41 36 27 22 20 14 6 6 1 354 345 334 329 326 327 305 319 14 26 15 4
134 131 140 141 138 134 130 127 122 119 115 111 107 99 95 87 78 67 63 56 48 44 40 34 28 23 18 10 3 5 0 349 341 331 323 318 314 321 309 327 49 20 3
140 139 133 137 139 141 143 139 132 125 121 117 112 108 102 93 85 76 65 59 50 47 42 35 29 24 20 18 17 9 360 343 335 313 307 309 320 328 311 332 24 4 350
139 136 134 124 134 147 149 142 136 131 128 128 126 118 109 98 85 69 60 57 46 46 39 36 33 31 28 24 20 15 5 7 357 339 342 346 345 347 348 329 339 333 331
153 153 157 153 143 144 147 141 139 136 135 132 129 124 110 92 92 72 59 54 45 44 37 32 30 30 22 20 18 11 8 6 354 348 348 341 349 346 343 341 343 334 325
174 170 164 164 160 155 142 141 140 144 140 139 137 145 116 111 108 94 79 66 59 48 41 33 30 22 17 13 12 8 4 351 355 349 336 346 345 343 337 333 329 327 323
188 186 172 173 165 161 155 152 156 159 157 157 148 132 130 116 112 95 69 67 64 53 42 33 29 22 17 358 354 359 349 346 350 339 329 338 339 336 332 329 322 317 316
186 179 184 177 169 167 158 164 169 163 161 152 146 144 132 109 90 82 74 55 50 53 48 37 20 12 8 359 352 348 346 347 334 323 328 331 329 326 322 316 315 310 308
186 190 178 177 174 176 158 167 172 161 160 157 156 141 128 112 107 110 112 103 89 55 42 29 20 360 8 0 352 341 333 318 309 309 309 320 325 322 321 318 313 309 306
196 188 186 178 177 175 164 166 164 172 160 165 150 137 134 129 129 125 114 90 69 46 39 23 13 6 3 356 347 348 340 331 324 310 292 309 320 321 318 317 316 314 311
196 191 180 183 176 165 167 168 170 166 162 154 145 142 134 138 134 125 112 86 67 48 38 29 15 16 7 346 341 335 324 312 310 308 311 315 316 317 315 316 316 320 320
198 180 182 176 169 170 172 170 169 169 154 144 148 146 139 138 137 135 124 103 87 61 50 30 13 12 3 351 332 315 307 294 293 298 309 299 309 296 300 315 313 317 324
177 177 177 176 172 168 171 164 163 161 152 150 147 147 153 145 140 133 130 128 123 90 75 46 27 1 5 345 313 305 282 276 280 293 305 290 276 299 305 305 307 317 324
180 172 173 171 168 166 160 156 156 159 158 160 152 159 161 149 147 141 139 132 122 104 79 58 36 44 348 329 312 290 281 278 272 286 268 276 274 284 284 287 297 308 313
178 172 167 164 163 162 155 143 138 148 159 160 165 169 158 156 156 149 144 145 143 134 115 74 58 339 286 292 306 297 288 292 297 296 308 319 316 311 300 309 342 349 352
161 160 166 163 169 160 163 159 160 180 176 173 176 160 161 161 164 159 155 156 159 149 140 113 120 22 359 334 333 308 306 288 295 4 320 300 330 340 345 2 1 329 324
167 168 167 169 169 172 171 172 165 162 164 158 153 165 171 168 171 167 163 170 163 149 124 112 97 41 19 35 13 332 342 332 6 324 325 322 339 359 343 340 332 325 343
169 170 170 172 174 174 169 151 100 89 80 149 190 184 188 172 173 166 170 164 177 170 145 137 122 109 76 7 47 238 332 316 333 334 329 321 328 336 330 334 312 317 312
177 170 171 172 175 174 165 172 174 187 185 202 190 180 170 172 172 166 171 174 186 180 128 128 128 126 124 218 335 267 224 169 270 315 320 312 310 307 319 303 296 294 300
167 172 171 172 176 174 179 184 183 192 191 136 149 165 167 171 171 177 177 177 178 171 137 140 133 149 163 162 189 307 260 261 237 247 298 265 303 295 287 276 278 284 283
164 168 172 175 183 181 182 184 190 189 176 165 170 180 182 180 180 181 178 169 171 171 146 149 147 140 149 179 206 232 241 261 272 285 288 298 287 277 309 283 273 264 265